AAL8205 KOKC-KMEM

Flight info

Callsign AAL8205
Flight time 1h 1m
Altitude 37000
Route TRUPR3 DRLER DCT RZC BRBBQ3
Aircraft A320/M-SDE3FGHIRWY/LB1

Departure

Time 2026-04-12 04:12
Airport OKC Will Rogers World Airport (KOKC)

Arrival

Time 2026-04-12 05:14
Airport Memphis International Airport (KMEM)
Time Latitude Longitude Altitude Speed Heading
2026-04-12 03:42 35.39490 -97.59487 1301 ft 0 kts 310°
2026-04-12 04:03 35.39477 -97.59468 1301 ft 4 kts 307°
2026-04-12 04:03 35.39459 -97.59445 1301 ft 4 kts 323°
2026-04-12 04:03 35.39436 -97.59426 1300 ft 4 kts 328°
2026-04-12 04:03 35.39413 -97.59411 1300 ft 4 kts 341°
2026-04-12 04:04 35.39390 -97.59407 1300 ft 4 kts 35°
2026-04-12 04:04 35.39384 -97.59415 1300 ft 1 kts 90°
2026-04-12 04:04 35.39384 -97.59418 1300 ft 0 kts 90°
2026-04-12 04:06 35.39384 -97.59399 1299 ft 6 kts 90°
2026-04-12 04:06 35.39384 -97.59317 1297 ft 12 kts 90°
2026-04-12 04:06 35.39421 -97.59230 1298 ft 12 kts 24°
2026-04-12 04:07 35.39472 -97.59173 1298 ft 9 kts 70°
2026-04-12 04:07 35.39485 -97.59093 1297 ft 10 kts 68°
2026-04-12 04:07 35.39546 -97.59062 1296 ft 10 kts
2026-04-12 04:07 35.39613 -97.59063 1296 ft 9 kts 360°
2026-04-12 04:08 35.39673 -97.59063 1298 ft 11 kts
2026-04-12 04:08 35.39773 -97.59062 1300 ft 18 kts 360°
2026-04-12 04:08 35.39905 -97.59062 1297 ft 19 kts 360°
2026-04-12 04:08 35.40034 -97.59063 1297 ft 18 kts 360°
2026-04-12 04:09 35.40145 -97.59063 1299 ft 14 kts 360°
2026-04-12 04:09 35.40240 -97.59063 1298 ft 13 kts
2026-04-12 04:09 35.40332 -97.59062 1296 ft 13 kts
2026-04-12 04:09 35.40390 -97.59011 1297 ft 6 kts 73°
2026-04-12 04:10 35.40391 -97.59008 1297 ft 0 kts 76°
2026-04-12 04:10 35.40391 -97.59003 1297 ft 2 kts 77°
2026-04-12 04:10 35.40387 -97.58939 1299 ft 12 kts 109°
2026-04-12 04:11 35.40313 -97.58896 1301 ft 14 kts 180°
2026-04-12 04:11 35.40168 -97.58896 1299 ft 41 kts 180°
2026-04-12 04:11 35.39634 -97.58895 1295 ft 109 kts 180°
2026-04-12 04:11 35.38694 -97.58892 1340 ft 154 kts 179°
2026-04-12 04:12 35.37994 -97.58875 1781 ft 152 kts 177°
2026-04-12 04:12 35.36942 -97.58833 2519 ft 150 kts 178°
2026-04-12 04:12 35.35922 -97.58615 3238 ft 154 kts 158°
2026-04-12 04:12 35.35133 -97.57565 3536 ft 195 kts 119°
2026-04-12 04:13 35.35154 -97.55716 3812 ft 246 kts 81°
2026-04-12 04:13 35.35937 -97.53690 4195 ft 279 kts 66°
2026-04-12 04:13 35.37046 -97.51654 4854 ft 293 kts 60°
2026-04-12 04:13 35.38262 -97.49621 5655 ft 298 kts 58°
2026-04-12 04:14 35.39492 -97.47559 6473 ft 302 kts 57°
2026-04-12 04:14 35.40714 -97.45433 7231 ft 306 kts 59°
2026-04-12 04:14 35.41911 -97.43257 8043 ft 308 kts 60°
2026-04-12 04:14 35.43085 -97.41050 8877 ft 311 kts 60°
2026-04-12 04:15 35.44253 -97.38813 9686 ft 313 kts 60°
2026-04-12 04:15 35.45426 -97.36534 10351 ft 321 kts 60°
2026-04-12 04:15 35.46656 -97.34124 10572 ft 345 kts 60°
2026-04-12 04:15 35.47960 -97.31569 10978 ft 359 kts 60°
2026-04-12 04:16 35.49297 -97.28959 11636 ft 364 kts 60°
2026-04-12 04:16 35.50652 -97.26324 12324 ft 368 kts 59°
2026-04-12 04:16 35.52025 -97.23656 13027 ft 371 kts 59°
2026-04-12 04:16 35.53413 -97.20961 13712 ft 375 kts 59°
2026-04-12 04:17 35.54816 -97.18239 14322 ft 379 kts 59°
2026-04-12 04:17 35.56232 -97.15483 14902 ft 383 kts 59°
2026-04-12 04:17 35.57660 -97.12695 15465 ft 388 kts 59°
2026-04-12 04:17 35.59101 -97.09884 16065 ft 392 kts 59°
2026-04-12 04:18 35.60543 -97.07065 16624 ft 396 kts 59°
2026-04-12 04:18 35.62015 -97.04185 17190 ft 400 kts 59°
2026-04-12 04:18 35.63502 -97.01274 17773 ft 404 kts 59°
2026-04-12 04:18 35.65003 -96.98334 18339 ft 408 kts 59°
2026-04-12 04:19 35.66517 -96.95362 18838 ft 412 kts 60°
2026-04-12 04:19 35.68000 -96.92333 19335 ft 415 kts 62°
2026-04-12 04:19 35.69441 -96.89243 19842 ft 418 kts 62°
2026-04-12 04:19 35.70868 -96.86103 20350 ft 421 kts 63°
2026-04-12 04:20 35.72296 -96.82942 20851 ft 424 kts 63°
2026-04-12 04:20 35.73739 -96.79765 21379 ft 426 kts 62°
2026-04-12 04:20 35.75199 -96.76572 21882 ft 430 kts 62°
2026-04-12 04:20 35.76673 -96.73358 22387 ft 432 kts 62°
2026-04-12 04:21 35.78164 -96.70115 22878 ft 436 kts 62°
2026-04-12 04:21 35.79662 -96.66863 23361 ft 439 kts 62°
2026-04-12 04:21 35.81174 -96.63581 23802 ft 442 kts 62°
2026-04-12 04:21 35.82694 -96.60276 24178 ft 445 kts 62°
2026-04-12 04:22 35.84222 -96.56946 24552 ft 448 kts 62°
2026-04-12 04:22 35.85762 -96.53587 24909 ft 450 kts 62°
2026-04-12 04:22 35.87301 -96.50219 25272 ft 453 kts 62°
2026-04-12 04:22 35.88851 -96.46821 25617 ft 456 kts 62°
2026-04-12 04:23 35.90412 -96.43404 25947 ft 459 kts 62°
2026-04-12 04:23 35.91962 -96.40012 26280 ft 461 kts 62°
2026-04-12 04:23 35.93540 -96.36552 26622 ft 464 kts 62°
2026-04-12 04:23 35.95126 -96.33072 26955 ft 466 kts 62°
2026-04-12 04:24 35.96721 -96.29571 27286 ft 469 kts 62°
2026-04-12 04:24 35.98323 -96.26049 27605 ft 472 kts 62°
2026-04-12 04:24 35.99931 -96.22505 27929 ft 474 kts 62°
2026-04-12 04:24 36.01545 -96.18939 28241 ft 477 kts 62°
2026-04-12 04:25 36.03167 -96.15352 28548 ft 479 kts 62°
2026-04-12 04:25 36.04804 -96.11741 28849 ft 482 kts 61°
2026-04-12 04:25 36.06445 -96.08118 29133 ft 484 kts 61°
2026-04-12 04:25 36.08093 -96.04472 29395 ft 487 kts 61°
2026-04-12 04:26 36.09749 -96.00804 29681 ft 490 kts 61°
2026-04-12 04:26 36.11411 -95.97114 29991 ft 491 kts 61°
2026-04-12 04:26 36.13077 -95.93415 30268 ft 493 kts 61°
2026-04-12 04:26 36.14749 -95.89699 30495 ft 495 kts 61°
2026-04-12 04:27 36.16406 -95.86009 30714 ft 497 kts 61°
2026-04-12 04:27 36.17976 -95.82193 30928 ft 498 kts 68°
2026-04-12 04:27 36.19101 -95.78134 31133 ft 499 kts 77°
2026-04-12 04:27 36.19749 -95.73919 31355 ft 498 kts 86°
2026-04-12 04:28 36.19969 -95.69652 31628 ft 496 kts 89°
2026-04-12 04:28 36.20124 -95.65385 31898 ft 496 kts 89°
2026-04-12 04:28 36.20278 -95.61116 32178 ft 496 kts 89°
2026-04-12 04:28 36.20428 -95.56846 32455 ft 496 kts 89°
2026-04-12 04:29 36.20574 -95.52574 32732 ft 496 kts 89°
2026-04-12 04:29 36.20719 -95.48292 33008 ft 497 kts 89°
2026-04-12 04:29 36.20865 -95.44020 33279 ft 497 kts 89°
2026-04-12 04:29 36.21009 -95.39800 33544 ft 497 kts 89°
2026-04-12 04:30 36.21155 -95.35517 33814 ft 497 kts 89°
2026-04-12 04:30 36.21297 -95.31251 34064 ft 497 kts 89°
2026-04-12 04:30 36.21435 -95.26961 34244 ft 499 kts 89°
2026-04-12 04:30 36.21574 -95.22650 34445 ft 500 kts 89°
2026-04-12 04:31 36.21713 -95.18355 34669 ft 500 kts 89°
2026-04-12 04:31 36.21853 -95.14049 34904 ft 500 kts 89°
2026-04-12 04:31 36.21991 -95.09746 35124 ft 500 kts 89°
2026-04-12 04:31 36.22128 -95.05442 35339 ft 500 kts 89°
2026-04-12 04:32 36.22261 -95.01141 35557 ft 500 kts 89°
2026-04-12 04:32 36.22392 -94.96841 35762 ft 500 kts 89°
2026-04-12 04:32 36.22523 -94.92541 35938 ft 500 kts 89°
2026-04-12 04:32 36.22653 -94.88233 36101 ft 501 kts 89°
2026-04-12 04:33 36.22777 -94.83921 36278 ft 501 kts 89°
2026-04-12 04:33 36.22899 -94.79599 36457 ft 501 kts 89°
2026-04-12 04:33 36.23021 -94.75285 36632 ft 501 kts 89°
2026-04-12 04:33 36.23143 -94.70972 36811 ft 501 kts 89°
2026-04-12 04:34 36.23262 -94.66669 37011 ft 501 kts 89°
2026-04-12 04:34 36.23380 -94.62357 37163 ft 501 kts 90°
2026-04-12 04:34 36.23497 -94.58049 37196 ft 500 kts 89°
2026-04-12 04:35 36.23724 -94.49451 37192 ft 504 kts 89°
2026-04-12 04:35 36.23948 -94.40766 37192 ft 505 kts 89°
2026-04-12 04:36 36.24173 -94.32076 37183 ft 505 kts 89°
2026-04-12 04:36 36.24390 -94.23390 37183 ft 505 kts 89°
2026-04-12 04:37 36.24571 -94.14697 37190 ft 505 kts 91°
2026-04-12 04:37 36.23618 -94.06117 37189 ft 502 kts 104°
2026-04-12 04:38 36.22171 -93.97662 37180 ft 502 kts 103°
2026-04-12 04:38 36.20742 -93.89182 37171 ft 502 kts 103°
2026-04-12 04:39 36.19308 -93.80723 37182 ft 502 kts 103°
2026-04-12 04:39 36.17850 -93.72261 37153 ft 502 kts 103°
2026-04-12 04:40 36.16389 -93.63816 37157 ft 502 kts 103°
2026-04-12 04:40 36.14938 -93.55432 37161 ft 502 kts 103°
2026-04-12 04:41 36.13473 -93.46981 37177 ft 501 kts 103°
2026-04-12 04:41 36.12000 -93.38554 37184 ft 502 kts 103°
2026-04-12 04:42 36.10514 -93.30106 37193 ft 501 kts 103°
2026-04-12 04:42 36.09031 -93.21669 37197 ft 502 kts 103°
2026-04-12 04:43 36.06802 -93.09088 37194 ft 502 kts 103°
2026-04-12 04:43 36.05297 -93.00668 37199 ft 501 kts 103°
2026-04-12 04:44 36.03788 -92.92261 37197 ft 501 kts 103°
2026-04-12 04:44 36.02277 -92.83861 37187 ft 501 kts 103°
2026-04-12 04:45 36.00761 -92.75460 37184 ft 500 kts 103°
2026-04-12 04:45 35.99242 -92.67073 37193 ft 500 kts 103°
2026-04-12 04:46 35.97718 -92.58695 37198 ft 500 kts 103°
2026-04-12 04:46 35.96183 -92.50331 37194 ft 499 kts 103°
2026-04-12 04:47 35.94639 -92.41977 37213 ft 499 kts 103°
2026-04-12 04:47 35.93112 -92.33677 37199 ft 499 kts 103°
2026-04-12 04:48 35.91566 -92.25306 36988 ft 501 kts 103°
2026-04-12 04:48 35.90785 -92.21100 36218 ft 503 kts 103°
2026-04-12 04:48 35.90004 -92.16901 35422 ft 505 kts 103°
2026-04-12 04:49 35.89211 -92.12656 34555 ft 510 kts 103°
2026-04-12 04:49 35.88411 -92.08395 33848 ft 509 kts 103°
2026-04-12 04:49 35.87618 -92.04170 33230 ft 505 kts 103°
2026-04-12 04:49 35.86833 -91.99984 32487 ft 496 kts 103°
2026-04-12 04:50 35.86062 -91.95874 31619 ft 488 kts 103°
2026-04-12 04:50 35.85304 -91.91840 30795 ft 480 kts 104°
2026-04-12 04:50 35.84552 -91.87861 29972 ft 471 kts 103°
2026-04-12 04:50 35.83815 -91.83973 29255 ft 459 kts 103°
2026-04-12 04:51 35.83101 -91.80223 28889 ft 443 kts 104°
2026-04-12 04:51 35.82397 -91.76526 28412 ft 448 kts 104°
2026-04-12 04:51 35.81501 -91.72765 27937 ft 465 kts 113°
2026-04-12 04:51 35.80193 -91.69114 27467 ft 464 kts 116°
2026-04-12 04:52 35.78883 -91.65556 27043 ft 446 kts 116°
2026-04-12 04:52 35.77621 -91.62132 26409 ft 434 kts 116°
2026-04-12 04:52 35.76384 -91.58780 26075 ft 427 kts 116°
2026-04-12 04:52 35.75158 -91.55466 25621 ft 424 kts 116°
2026-04-12 04:53 35.73951 -91.52217 25129 ft 422 kts 116°
2026-04-12 04:53 35.72732 -91.48932 24682 ft 420 kts 116°
2026-04-12 04:53 35.70317 -91.42414 23723 ft 417 kts 116°
2026-04-12 04:54 35.69119 -91.39180 23179 ft 414 kts 116°
2026-04-12 04:54 35.67928 -91.35984 22789 ft 409 kts 117°
2026-04-12 04:54 35.66741 -91.32810 22326 ft 405 kts 117°
2026-04-12 04:54 35.65569 -91.29673 21769 ft 405 kts 117°
2026-04-12 04:55 35.64400 -91.26542 21515 ft 396 kts 117°
2026-04-12 04:55 35.63282 -91.23535 21130 ft 381 kts 117°
2026-04-12 04:55 35.62194 -91.20605 20510 ft 373 kts 117°
2026-04-12 04:55 35.61123 -91.17725 19910 ft 367 kts 117°
2026-04-12 04:56 35.60076 -91.14912 19442 ft 357 kts 117°
2026-04-12 04:56 35.59055 -91.12177 19019 ft 346 kts 117°
2026-04-12 04:56 35.58065 -91.09527 18616 ft 337 kts 117°
2026-04-12 04:56 35.57097 -91.06943 18177 ft 327 kts 117°
2026-04-12 04:57 35.56149 -91.04417 17774 ft 325 kts 117°
2026-04-12 04:57 35.55204 -91.01912 17387 ft 323 kts 117°
2026-04-12 04:57 35.54272 -90.99451 17008 ft 320 kts 117°
2026-04-12 04:57 35.53331 -90.96962 16631 ft 326 kts 117°
2026-04-12 04:58 35.52342 -90.94399 16265 ft 335 kts 117°
2026-04-12 04:58 35.51330 -90.91814 15899 ft 336 kts 117°
2026-04-12 04:58 35.50369 -90.89204 15532 ft 335 kts 116°
2026-04-12 04:58 35.49430 -90.86592 15174 ft 334 kts 115°
2026-04-12 04:59 35.48526 -90.83971 14829 ft 333 kts 114°
2026-04-12 04:59 35.47654 -90.81340 14471 ft 332 kts 113°
2026-04-12 04:59 35.47075 -90.79564 14215 ft 332 kts 113°
2026-04-12 04:59 35.46227 -90.76947 13752 ft 328 kts 113°
2026-04-12 05:00 35.45387 -90.74359 13077 ft 324 kts 113°
2026-04-12 05:00 35.44553 -90.71808 12436 ft 320 kts 113°
2026-04-12 05:00 35.43730 -90.69322 12134 ft 304 kts 114°
2026-04-12 05:00 35.42964 -90.67015 11850 ft 290 kts 114°
2026-04-12 05:01 35.42232 -90.64720 11135 ft 293 kts 110°
2026-04-12 05:01 35.41596 -90.62279 10342 ft 299 kts 108°
2026-04-12 05:01 35.40987 -90.59851 9967 ft 296 kts 108°
2026-04-12 05:01 35.40395 -90.57483 9639 ft 293 kts 108°
2026-04-12 05:02 35.39798 -90.55077 9276 ft 290 kts 108°
2026-04-12 05:02 35.39226 -90.52756 8925 ft 288 kts 108°
2026-04-12 05:02 35.38653 -90.50417 8556 ft 285 kts 108°
2026-04-12 05:02 35.38091 -90.48095 8196 ft 283 kts 108°
2026-04-12 05:03 35.37535 -90.45793 7841 ft 280 kts 108°
2026-04-12 05:03 35.36986 -90.43511 7475 ft 278 kts 108°
2026-04-12 05:03 35.36446 -90.41245 7114 ft 276 kts 108°
2026-04-12 05:03 35.35914 -90.38995 6761 ft 274 kts 108°
2026-04-12 05:04 35.35394 -90.36763 6357 ft 271 kts 108°
2026-04-12 05:04 35.34894 -90.34543 5989 ft 269 kts 108°
2026-04-12 05:04 35.34409 -90.32338 5612 ft 267 kts 108°
2026-04-12 05:04 35.33933 -90.30147 5237 ft 264 kts 108°
2026-04-12 05:05 35.33469 -90.27980 4919 ft 262 kts 108°
2026-04-12 05:05 35.33015 -90.25834 4500 ft 260 kts 108°
2026-04-12 05:05 35.32564 -90.23688 4084 ft 260 kts 108°
2026-04-12 05:05 35.32124 -90.21570 3964 ft 250 kts 108°
2026-04-12 05:06 35.31713 -90.19562 3973 ft 240 kts 108°
2026-04-12 05:06 35.31307 -90.17573 3978 ft 240 kts 108°
2026-04-12 05:06 35.30901 -90.15588 3984 ft 240 kts 108°
2026-04-12 05:06 35.30472 -90.13617 3984 ft 239 kts 112°
2026-04-12 05:07 35.29933 -90.11721 3988 ft 239 kts 114°
2026-04-12 05:07 35.29362 -90.09809 3985 ft 235 kts 114°
2026-04-12 05:07 35.28811 -90.07957 3985 ft 230 kts 114°
2026-04-12 05:07 35.28266 -90.06119 3986 ft 229 kts 114°
2026-04-12 05:08 35.27644 -90.04337 3983 ft 226 kts 123°
2026-04-12 05:08 35.26607 -90.02951 3987 ft 221 kts 145°
2026-04-12 05:08 35.25363 -90.01852 3983 ft 220 kts 147°
2026-04-12 05:08 35.24102 -90.00790 3982 ft 219 kts 148°
2026-04-12 05:09 35.22888 -89.99771 3985 ft 204 kts 150°
2026-04-12 05:09 35.21591 -89.99130 3586 ft 205 kts 174°
2026-04-12 05:09 35.20154 -89.99073 3244 ft 206 kts 179°
2026-04-12 05:09 35.18750 -89.99042 2983 ft 196 kts 179°
2026-04-12 05:10 35.17410 -89.99013 2697 ft 188 kts 179°
2026-04-12 05:10 35.16152 -89.98985 2452 ft 173 kts 179°
2026-04-12 05:10 35.15002 -89.98961 2254 ft 157 kts 179°
2026-04-12 05:10 35.13974 -89.98938 2068 ft 141 kts 180°
2026-04-12 05:11 35.13019 -89.98918 1881 ft 135 kts 180°
2026-04-12 05:11 35.12087 -89.98898 1707 ft 133 kts 179°
2026-04-12 05:11 35.11172 -89.98878 1531 ft 133 kts 179°
2026-04-12 05:11 35.10249 -89.98858 1363 ft 133 kts 179°
2026-04-12 05:12 35.09324 -89.98839 1193 ft 133 kts 179°
2026-04-12 05:12 35.08388 -89.98821 1001 ft 135 kts 179°
2026-04-12 05:12 35.07441 -89.98801 776 ft 137 kts 179°
2026-04-12 05:12 35.06495 -89.98781 586 ft 136 kts 179°
2026-04-12 05:13 35.05540 -89.98759 409 ft 140 kts 179°
2026-04-12 05:13 35.04554 -89.98734 320 ft 142 kts 179°
2026-04-12 05:13 35.03681 -89.98717 312 ft 104 kts 179°
2026-04-12 05:13 35.03133 -89.98706 315 ft 54 kts 179°
2026-04-12 05:14 35.02866 -89.98690 316 ft 29 kts 173°
2026-04-12 05:14 35.02705 -89.98597 315 ft 10 kts 146°
2026-04-12 05:14 35.02694 -89.98588 315 ft 0 kts 146°
2026-04-12 05:15 35.02691 -89.98586 315 ft 3 kts 146°
2026-04-12 05:15 35.02664 -89.98550 315 ft 9 kts 124°
2026-04-12 05:16 35.02643 -89.98458 319 ft 14 kts 113°
2026-04-12 05:16 35.02686 -89.98456 319 ft 10 kts 329°
2026-04-12 05:16 35.02785 -89.98464 316 ft 18 kts 360°
2026-04-12 05:16 35.02935 -89.98466 314 ft 23 kts 359°
2026-04-12 05:17 35.03093 -89.98471 317 ft 22 kts 359°
2026-04-12 05:17 35.03250 -89.98474 315 ft 23 kts 359°
2026-04-12 05:17 35.03410 -89.98477 315 ft 21 kts 359°
2026-04-12 05:17 35.03522 -89.98479 315 ft 15 kts 360°
2026-04-12 05:18 35.03630 -89.98482 311 ft 16 kts 357°
2026-04-12 05:18 35.03741 -89.98488 308 ft 12 kts 359°
2026-04-12 05:18 35.03826 -89.98491 308 ft 12 kts 359°
2026-04-12 05:18 35.03912 -89.98492 305 ft 12 kts 359°
2026-04-12 05:19 35.04002 -89.98494 304 ft 14 kts 359°
2026-04-12 05:19 35.04028 -89.98449 303 ft 4 kts 123°
2026-04-12 05:19 35.04078 -89.98291 308 ft 0 kts 295°